User: anonymous   Login
Location: Unspecified
(38.0989°N, 0.6729°W)
Time: 03:20:58
(UTC+01:00)
Language:

Mayak - Orbit

View from above orbital plane
View from above orbital plane
View from above satellite
View from above satellite

Ground track
Ground track

The orbit data is extracted from the following two-line orbital elements,

1 42830U 17042F   17343.93657910 +.00000785 +00000-0 +84645-4 0  9990
2 42830 097.6087 248.2999 0015821 104.1457 256.1521 14.91001710022132
Epoch (UTC): 09 December 2017 22:28:40
Eccentricity: 0.0015821
inclination: 97.6087°
perigee height: 584 km
apogee height: 606 km
right ascension of ascending node: 248.2999°
argument of perigee: 104.1457°
revolutions per day: 14.91001710
mean anomaly at epoch: 256.1521°
orbit number at epoch: 2213

The dashed part of the orbit path shows where the satellite is in the earth's shadow,  

DLR